{"data":{"norad_id":39452,"intl_designator":"2013-067B","name":"SWARM A","alt_names":[],"object_type":"PAYLOAD","status":"ACTIVE","operator":null,"country":"ESA","launch_date":"2013-11-22","launch_site_code":"PLMSC","launch_vehicle":null,"mission":null,"orbit_class":"UNKNOWN","rcs_meters":2.2407,"size_class":null,"mass_kg":null,"dimensions":null,"purposes":["science"],"wikipedia_slug":null,"has_3d_model":false,"image_url":null,"decayed_at":null,"tle_current":{"epoch":"2026-09-20T03:31:40.694592Z","epoch_age_seconds":44839,"freshness":"FRESH","line1":"1 39452U 13067B   26263.14699878  .00008175  00000+0  14091-3 0  9999","line2":"2 39452  87.3356  20.9610 0002528 102.0142 258.1402 15.50854822720968","mean_motion":15.50854822,"eccentricity":0.0002528,"inclination_deg":87.3356,"raan_deg":20.961,"arg_perigee_deg":102.0142,"mean_anomaly_deg":258.1402,"bstar":0.00014091,"rev_number":72096,"period_min":92.852018098184,"perigee_km":412.51187079044,"apogee_km":415.94609103039,"semimajor_km":6792.3659809104,"source":"CELESTRAK","updated_at":"2026-09-20T09:00:47.147058Z"}}}